No particular awareness of the weather is required.    There are no Weather-warnings


Meteo18 Weather Cam more information Meteo18 Weather Cam


Thunder radar more information blitzortung!


Rain radar more information rain snow radar


Visit our other weather sites:

Template documentation
and downloads

And another site



Weather Underground History page Text

Daily Summary for January 18, 2016 Units:  Metric    English   Both
« Previous Day
Next Day »
Daily Weekly Monthly Yearly Custom
  High: Low: Average:
Temperature: 0.2 °C -2.6 °C -0.9 °C
Dew Point: -0.3 °C -4.5 °C -2.1 °C
Humidity: 98 % 79 % 92 %
Wind Speed: 4.8 km/h 0.0 km/h 0.3 km/h
Wind Gust: 9.7 km/h - -
Wind:- - WNW
Pressure: 1021.6 hPa 1010.0 hPa -
Precipitation: 0.0 mm    
Historical Graphs
 
 
Tabular Data for January 18, 2016
Time Temperature Dew Point Pressure Wind Wind Speed Wind Gust Humidity Rainfall Rate (Hourly)
00:02 -2.3 °C -2.7 °C 1021.6 hPa Calm     97 % 0.0 mm
00:12 -2.2 °C -2.6 °C 1021.6 hPa Calm     97 % 0.0 mm
00:17 -2.2 °C -2.6 °C 1021.6 hPa Calm     97 % 0.0 mm
00:22 -2.2 °C -2.6 °C 1021.6 hPa Calm     97 % 0.0 mm
00:27 -2.2 °C -2.6 °C 1021.2 hPa Calm     97 % 0.0 mm
00:32 -2.2 °C -2.6 °C 1021.2 hPa Calm     97 % 0.0 mm
00:37 -2.2 °C -2.6 °C 1021.2 hPa Calm     97 % 0.0 mm
00:42 -2.2 °C -2.6 °C 1021.2 hPa Calm     97 % 0.0 mm
00:52 -2.2 °C -2.6 °C 1020.9 hPa Calm     97 % 0.0 mm
00:57 -2.2 °C -2.6 °C 1020.9 hPa Calm     97 % 0.0 mm
01:07 -2.0 °C -2.4 °C 1020.9 hPa Calm   1.6 km/h 97 % 0.0 mm
01:12 -1.9 °C -2.2 °C 1020.9 hPa Calm   1.6 km/h 98 % 0.0 mm
01:17 -1.9 °C -2.3 °C 1020.5 hPa Calm     97 % 0.0 mm
01:22 -1.9 °C -2.3 °C 1020.5 hPa Calm     97 % 0.0 mm
01:27 -1.9 °C -2.3 °C 1020.5 hPa Calm     97 % 0.0 mm
01:32 -1.9 °C -2.3 °C 1020.5 hPa Calm     97 % 0.0 mm
01:42 -2.1 °C -2.5 °C 1020.5 hPa Calm     97 % 0.0 mm
01:47 -2.1 °C -2.5 °C 1020.5 hPa Calm     97 % 0.0 mm
01:52 -2.1 °C -2.5 °C 1020.2 hPa Calm     97 % 0.0 mm
02:02 -2.2 °C -2.6 °C 1019.9 hPa Calm     97 % 0.0 mm
02:07 -2.2 °C -2.6 °C 1019.9 hPa Calm     97 % 0.0 mm
02:12 -2.2 °C -2.6 °C 1019.9 hPa Calm     97 % 0.0 mm
02:17 -2.3 °C -2.7 °C 1019.9 hPa Calm     97 % 0.0 mm
02:22 -2.3 °C -2.7 °C 1019.9 hPa Calm     97 % 0.0 mm
02:27 -2.3 °C -2.7 °C 1019.5 hPa Calm     97 % 0.0 mm
02:32 -2.2 °C -2.6 °C 1019.5 hPa Calm   1.6 km/h 97 % 0.0 mm
02:37 -2.2 °C -2.6 °C 1019.5 hPa Calm   1.6 km/h 97 % 0.0 mm
02:42 -2.3 °C -2.7 °C 1019.5 hPa Calm   1.6 km/h 97 % 0.0 mm
02:47 -2.3 °C -2.7 °C 1019.5 hPa Calm     97 % 0.0 mm
03:02 -2.4 °C -2.8 °C 1019.2 hPa Calm     97 % 0.0 mm
03:07 -2.4 °C -2.8 °C 1019.2 hPa Calm     97 % 0.0 mm
03:12 -2.3 °C -2.7 °C 1018.8 hPa Calm   1.6 km/h 97 % 0.0 mm
03:17 -2.4 °C -2.8 °C 1018.8 hPa Calm   1.6 km/h 97 % 0.0 mm
03:22 -2.3 °C -2.7 °C 1018.8 hPa Calm   1.6 km/h 97 % 0.0 mm
03:32 -2.4 °C -2.8 °C 1018.8 hPa Calm     97 % 0.0 mm
03:37 -2.4 °C -2.8 °C 1018.8 hPa Calm     97 % 0.0 mm
03:47 -2.4 °C -2.8 °C 1018.8 hPa Calm     97 % 0.0 mm
04:02 -2.4 °C -2.8 °C 1018.5 hPa Calm     97 % 0.0 mm
04:07 -2.5 °C -2.9 °C 1018.5 hPa Calm     97 % 0.0 mm
04:12 -2.6 °C -3.0 °C 1018.5 hPa Calm     97 % 0.0 mm
04:17 -2.6 °C -3.0 °C 1018.2 hPa Calm     97 % 0.0 mm
04:22 -2.6 °C -3.0 °C 1018.2 hPa Calm     97 % 0.0 mm
04:27 -2.6 °C -3.0 °C 1018.2 hPa Calm     97 % 0.0 mm
04:32 -2.6 °C -3.0 °C 1018.2 hPa Calm     97 % 0.0 mm
04:37 -2.6 °C -3.0 °C 1017.8 hPa Calm     97 % 0.0 mm
04:42 -2.5 °C -2.9 °C 1017.8 hPa Calm     97 % 0.0 mm
04:47 -2.4 °C -2.8 °C 1017.8 hPa NNW 1.6 km/h 1.6 km/h 97 % 0.0 mm
04:52 -2.3 °C -2.7 °C 1017.5 hPa Calm   1.6 km/h 97 % 0.0 mm
04:57 -2.2 °C -2.6 °C 1017.5 hPa Calm   1.6 km/h 97 % 0.0 mm
05:02 -2.1 °C -2.8 °C 1017.5 hPa Calm   1.6 km/h 95 % 0.0 mm
05:07 -2.0 °C -2.8 °C 1017.5 hPa Calm   3.2 km/h 94 % 0.0 mm
05:12 -1.9 °C -2.9 °C 1017.5 hPa NW 1.6 km/h 3.2 km/h 93 % 0.0 mm
05:17 -1.9 °C -3.0 °C 1017.2 hPa Calm   3.2 km/h 92 % 0.0 mm
05:22 -1.9 °C -3.0 °C 1017.2 hPa Calm   3.2 km/h 92 % 0.0 mm
05:27 -1.9 °C -3.0 °C 1017.2 hPa Calm   3.2 km/h 92 % 0.0 mm
05:32 -1.9 °C -3.2 °C 1017.2 hPa Calm   3.2 km/h 91 % 0.0 mm
05:42 -1.9 °C -3.2 °C 1016.8 hPa NNW 1.6 km/h 6.4 km/h 91 % 0.0 mm
05:47 -1.9 °C -3.3 °C 1016.8 hPa North 1.6 km/h 6.4 km/h 90 % 0.0 mm
06:02 -1.8 °C -3.4 °C 1016.5 hPa Calm   4.8 km/h 89 % 0.0 mm
06:12 -1.8 °C -3.5 °C 1016.5 hPa NNW 4.8 km/h 4.8 km/h 88 % 0.0 mm
06:17 -1.8 °C -3.5 °C 1016.5 hPa West 1.6 km/h 4.8 km/h 88 % 0.0 mm
06:22 -1.8 °C -3.5 °C 1016.5 hPa Calm   4.8 km/h 88 % 0.0 mm
06:27 -1.7 °C -3.6 °C 1016.5 hPa Calm   4.8 km/h 87 % 0.0 mm
06:32 -1.8 °C -3.7 °C 1016.5 hPa Calm   9.7 km/h 87 % 0.0 mm
06:42 -1.7 °C -3.6 °C 1016.1 hPa Calm   9.7 km/h 87 % 0.0 mm
06:47 -1.7 °C -3.6 °C 1016.1 hPa Calm   9.7 km/h 87 % 0.0 mm
06:52 -1.8 °C -3.7 °C 1015.8 hPa Calm   6.4 km/h 87 % 0.0 mm
06:57 -1.8 °C -3.5 °C 1015.8 hPa Calm   6.4 km/h 88 % 0.0 mm
07:02 -1.9 °C -3.6 °C 1015.8 hPa Calm   3.2 km/h 88 % 0.0 mm
07:12 -1.9 °C -3.6 °C 1015.5 hPa Calm   1.6 km/h 88 % 0.0 mm
07:22 -1.9 °C -3.9 °C 1015.5 hPa NE 1.6 km/h 3.2 km/h 86 % 0.0 mm
07:27 -1.8 °C -3.8 °C 1015.5 hPa Calm   3.2 km/h 86 % 0.0 mm
07:37 -1.8 °C -4.0 °C 1015.5 hPa Calm   4.8 km/h 85 % 0.0 mm
07:42 -1.8 °C -3.8 °C 1015.5 hPa Calm   4.8 km/h 86 % 0.0 mm
07:47 -1.8 °C -4.0 °C 1015.5 hPa Calm   4.8 km/h 85 % 0.0 mm
07:52 -1.8 °C -4.0 °C 1015.5 hPa Calm   6.4 km/h 85 % 0.0 mm
07:57 -1.8 °C -4.1 °C 1015.5 hPa Calm   6.4 km/h 84 % 0.0 mm
08:02 -1.8 °C -4.1 °C 1015.5 hPa Calm   6.4 km/h 84 % 0.0 mm
08:12 -1.7 °C -4.2 °C 1015.5 hPa Calm   3.2 km/h 83 % 0.0 mm
08:17 -1.7 °C -4.2 °C 1015.5 hPa Calm   1.6 km/h 83 % 0.0 mm
08:22 -1.7 °C -4.2 °C 1015.5 hPa Calm   1.6 km/h 83 % 0.0 mm
08:32 -1.7 °C -4.5 °C 1015.5 hPa Calm   1.6 km/h 81 % 0.0 mm
08:37 -1.6 °C -4.3 °C 1015.1 hPa Calm   3.2 km/h 82 % 0.0 mm
08:42 -1.7 °C -4.4 °C 1015.1 hPa Calm   3.2 km/h 82 % 0.0 mm
08:47 -1.7 °C -4.4 °C 1015.1 hPa Calm   1.6 km/h 82 % 0.0 mm
08:57 -1.7 °C -4.4 °C 1015.1 hPa Calm   1.6 km/h 82 % 0.0 mm
09:12 -1.8 °C -3.8 °C 1014.8 hPa Calm   1.6 km/h 86 % 0.0 mm
09:17 -1.8 °C -3.8 °C 1014.8 hPa Calm   1.6 km/h 86 % 0.0 mm
09:22 -1.7 °C -3.7 °C 1014.8 hPa Calm   1.6 km/h 86 % 0.0 mm
09:27 -1.7 °C -3.6 °C 1014.8 hPa Calm     87 % 0.0 mm
09:32 -1.7 °C -3.6 °C 1014.4 hPa Calm     87 % 0.0 mm
09:37 -1.7 °C -3.6 °C 1014.4 hPa Calm   1.6 km/h 87 % 0.0 mm
09:47 -1.5 °C -3.7 °C 1014.4 hPa Calm   1.6 km/h 85 % 0.0 mm
09:52 -1.4 °C -3.8 °C 1014.4 hPa Calm   1.6 km/h 84 % 0.0 mm
09:57 -1.3 °C -3.7 °C 1014.4 hPa Calm   1.6 km/h 84 % 0.0 mm
10:02 -1.2 °C -3.6 °C 1014.4 hPa Calm   1.6 km/h 84 % 0.0 mm
10:07 -1.1 °C -3.6 °C 1014.4 hPa Calm   1.6 km/h 83 % 0.0 mm
10:12 -1.1 °C -3.6 °C 1014.4 hPa Calm   1.6 km/h 83 % 0.0 mm
10:17 -0.9 °C -3.7 °C 1014.1 hPa Calm   1.6 km/h 81 % 0.0 mm
10:22 -0.8 °C -3.5 °C 1014.1 hPa Calm   1.6 km/h 82 % 0.0 mm
10:27 -0.8 °C -3.7 °C 1014.1 hPa Calm   1.6 km/h 81 % 0.0 mm
10:32 -0.7 °C -3.6 °C 1014.1 hPa Calm   1.6 km/h 81 % 0.0 mm
10:37 -0.7 °C -3.7 °C 1014.1 hPa Calm   3.2 km/h 80 % 0.0 mm
10:42 -0.6 °C -3.5 °C 1014.1 hPa Calm   3.2 km/h 81 % 0.0 mm
10:47 -0.5 °C -3.4 °C 1014.1 hPa NNW 4.8 km/h 4.8 km/h 81 % 0.0 mm
10:52 -0.4 °C -3.1 °C 1013.8 hPa NNW 4.8 km/h 4.8 km/h 82 % 0.0 mm
10:57 -0.4 °C -3.3 °C 1013.8 hPa WNW 1.6 km/h 4.8 km/h 81 % 0.0 mm
11:02 -0.3 °C -3.3 °C 1013.8 hPa NW 1.6 km/h 6.4 km/h 80 % 0.0 mm
11:07 -0.3 °C -3.3 °C 1013.8 hPa NW 1.6 km/h 6.4 km/h 80 % 0.0 mm
11:12 -0.3 °C -3.2 °C 1013.8 hPa Calm   6.4 km/h 81 % 0.0 mm
11:17 -0.3 °C -3.3 °C 1013.8 hPa Calm   6.4 km/h 80 % 0.0 mm
11:22 -0.4 °C -3.4 °C 1013.4 hPa NNW 3.2 km/h 8.0 km/h 80 % 0.0 mm
11:27 -0.3 °C -3.2 °C 1013.4 hPa NNW 1.6 km/h 9.7 km/h 81 % 0.0 mm
11:32 -0.3 °C -3.3 °C 1013.4 hPa Calm   9.7 km/h 80 % 0.0 mm
11:37 -0.3 °C -3.3 °C 1013.4 hPa NNW 1.6 km/h 8.0 km/h 80 % 0.0 mm
11:42 -0.3 °C -3.3 °C 1013.1 hPa Calm   6.4 km/h 80 % 0.0 mm
11:47 -0.2 °C -3.4 °C 1013.1 hPa NW 1.6 km/h 9.7 km/h 79 % 0.0 mm
11:57 -0.2 °C -3.2 °C 1013.1 hPa NNW 3.2 km/h 9.7 km/h 80 % 0.0 mm
12:02 -0.2 °C -3.1 °C 1013.1 hPa Calm   6.4 km/h 81 % 0.0 mm
12:07 -0.1 °C -3.0 °C 1012.8 hPa Calm   6.4 km/h 81 % 0.0 mm
12:12 -0.1 °C -3.0 °C 1012.8 hPa Calm   4.8 km/h 81 % 0.0 mm
12:17 0.0 °C -2.9 °C 1012.8 hPa Calm   4.8 km/h 81 % 0.0 mm
12:22 0.1 °C -2.8 °C 1012.8 hPa Calm   3.2 km/h 81 % 0.0 mm
12:27 0.1 °C -2.8 °C 1012.8 hPa Calm   3.2 km/h 81 % 0.0 mm
12:32 0.1 °C -2.9 °C 1012.4 hPa Calm   3.2 km/h 80 % 0.0 mm
12:37 0.1 °C -2.8 °C 1012.4 hPa Calm   3.2 km/h 81 % 0.0 mm
12:42 0.2 °C -2.5 °C 1012.4 hPa Calm   3.2 km/h 82 % 0.0 mm
12:47 0.2 °C -2.3 °C 1012.1 hPa Calm   1.6 km/h 83 % 0.0 mm
12:52 0.2 °C -2.2 °C 1012.1 hPa Calm   1.6 km/h 84 % 0.0 mm
12:57 0.2 °C -2.2 °C 1012.1 hPa Calm   1.6 km/h 84 % 0.0 mm
13:02 0.1 °C -2.0 °C 1012.1 hPa Calm   1.6 km/h 86 % 0.0 mm
13:07 -0.1 °C -2.0 °C 1012.1 hPa Calm   3.2 km/h 87 % 0.0 mm
13:12 -0.3 °C -2.0 °C 1012.1 hPa NNW 1.6 km/h 4.8 km/h 88 % 0.0 mm
13:17 -0.5 °C -2.1 °C 1011.7 hPa NW 3.2 km/h 4.8 km/h 89 % 0.0 mm
13:22 -0.7 °C -2.0 °C 1011.7 hPa Calm   6.4 km/h 91 % 0.0 mm
13:27 -0.8 °C -1.9 °C 1011.7 hPa Calm   6.4 km/h 92 % 0.0 mm
13:32 -0.8 °C -1.8 °C 1011.7 hPa Calm   6.4 km/h 93 % 0.0 mm
13:37 -0.7 °C -1.7 °C 1011.7 hPa Calm   3.2 km/h 93 % 0.0 mm
13:42 -0.8 °C -1.9 °C 1011.7 hPa NNW 1.6 km/h 3.2 km/h 92 % 0.0 mm
13:47 -0.8 °C -1.8 °C 1011.4 hPa Calm   6.4 km/h 93 % 0.0 mm
13:52 -0.8 °C -1.8 °C 1011.4 hPa NNW 3.2 km/h 6.4 km/h 93 % 0.0 mm
13:57 -0.8 °C -1.8 °C 1011.4 hPa Calm   6.4 km/h 93 % 0.0 mm
14:02 -0.8 °C -1.6 °C 1011.4 hPa Calm   6.4 km/h 94 % 0.0 mm
14:07 -0.8 °C -1.6 °C 1011.4 hPa NW 1.6 km/h 6.4 km/h 94 % 0.0 mm
14:12 -0.8 °C -1.6 °C 1011.1 hPa Calm   6.4 km/h 94 % 0.0 mm
14:17 -0.8 °C -1.6 °C 1011.1 hPa NW 1.6 km/h 4.8 km/h 94 % 0.0 mm
14:22 -0.8 °C -1.6 °C 1011.1 hPa Calm   4.8 km/h 94 % 0.0 mm
14:27 -0.8 °C -1.6 °C 1011.1 hPa Calm   4.8 km/h 94 % 0.0 mm
14:32 -0.8 °C -1.6 °C 1011.1 hPa Calm   4.8 km/h 94 % 0.0 mm
14:37 -0.8 °C -1.6 °C 1011.1 hPa Calm   4.8 km/h 94 % 0.0 mm
14:42 -0.8 °C -1.6 °C 1011.1 hPa NW 1.6 km/h 4.8 km/h 94 % 0.0 mm
14:52 -0.8 °C -1.6 °C 1010.7 hPa NNW 4.8 km/h 6.4 km/h 94 % 0.0 mm
14:57 -0.8 °C -1.6 °C 1010.7 hPa North 4.8 km/h 8.0 km/h 94 % 0.0 mm
15:02 -0.8 °C -1.6 °C 1010.7 hPa NW 1.6 km/h 8.0 km/h 94 % 0.0 mm
15:07 -0.8 °C -1.5 °C 1010.7 hPa Calm   8.0 km/h 95 % 0.0 mm
15:12 -0.7 °C -1.4 °C 1010.4 hPa NNE 3.2 km/h 4.8 km/h 95 % 0.0 mm
15:17 -0.7 °C -1.4 °C 1010.4 hPa Calm   4.8 km/h 95 % 0.0 mm
15:22 -0.6 °C -1.3 °C 1010.4 hPa NW 1.6 km/h 4.8 km/h 95 % 0.0 mm
15:27 -0.6 °C -1.3 °C 1010.4 hPa Calm   4.8 km/h 95 % 0.0 mm
15:32 -0.6 °C -1.4 °C 1010.4 hPa NNW 3.2 km/h 4.8 km/h 94 % 0.0 mm
15:37 -0.6 °C -1.4 °C 1010.4 hPa Calm   4.8 km/h 94 % 0.0 mm
15:42 -0.6 °C -1.4 °C 1010.4 hPa Calm   4.8 km/h 94 % 0.0 mm
15:47 -0.5 °C -1.3 °C 1010.0 hPa Calm   4.8 km/h 94 % 0.0 mm
15:52 -0.5 °C -1.3 °C 1010.0 hPa Calm   3.2 km/h 94 % 0.0 mm
15:57 -0.4 °C -1.1 °C 1010.0 hPa Calm   3.2 km/h 95 % 0.0 mm
16:02 -0.4 °C -1.1 °C 1010.0 hPa Calm   3.2 km/h 95 % 0.0 mm
16:07 -0.4 °C -1.1 °C 1010.0 hPa Calm   3.2 km/h 95 % 0.0 mm
16:12 -0.3 °C -1.0 °C 1010.0 hPa SE 1.6 km/h 3.2 km/h 95 % 0.0 mm
16:17 -0.3 °C -1.0 °C 1010.0 hPa Calm   3.2 km/h 95 % 0.0 mm
16:27 -0.3 °C -1.0 °C 1010.0 hPa Calm   3.2 km/h 95 % 0.0 mm
16:32 -0.2 °C -0.9 °C 1010.0 hPa Calm   1.6 km/h 95 % 0.0 mm
16:37 -0.2 °C -0.9 °C 1010.0 hPa Calm   1.6 km/h 95 % 0.0 mm
16:42 -0.2 °C -0.9 °C 1010.0 hPa Calm   1.6 km/h 95 % 0.0 mm
16:47 -0.2 °C -0.9 °C 1010.0 hPa Calm   1.6 km/h 95 % 0.0 mm
16:57 -0.2 °C -0.9 °C 1010.0 hPa SE 1.6 km/h 1.6 km/h 95 % 0.0 mm
17:02 -0.2 °C -0.9 °C 1010.0 hPa Calm   1.6 km/h 95 % 0.0 mm
17:07 -0.2 °C -0.9 °C 1010.0 hPa Calm   1.6 km/h 95 % 0.0 mm
17:12 -0.2 °C -0.9 °C 1010.0 hPa Calm   1.6 km/h 95 % 0.0 mm
17:17 -0.3 °C -1.0 °C 1010.0 hPa Calm   1.6 km/h 95 % 0.0 mm
17:22 -0.3 °C -1.0 °C 1010.0 hPa Calm   1.6 km/h 95 % 0.0 mm
17:27 -0.3 °C -1.0 °C 1010.0 hPa Calm   1.6 km/h 95 % 0.0 mm
17:32 -0.3 °C -0.9 °C 1010.0 hPa Calm   1.6 km/h 96 % 0.0 mm
17:37 -0.2 °C -0.8 °C 1010.0 hPa Calm   1.6 km/h 96 % 0.0 mm
17:42 -0.2 °C -0.8 °C 1010.0 hPa Calm   3.2 km/h 96 % 0.0 mm
17:47 -0.2 °C -0.8 °C 1010.0 hPa Calm   3.2 km/h 96 % 0.0 mm
17:57 -0.2 °C -0.8 °C 1010.0 hPa Calm   1.6 km/h 96 % 0.0 mm
18:02 -0.2 °C -0.8 °C 1010.0 hPa Calm   1.6 km/h 96 % 0.0 mm
18:07 -0.2 °C -0.8 °C 1010.0 hPa Calm   1.6 km/h 96 % 0.0 mm
18:12 -0.2 °C -0.8 °C 1010.0 hPa Calm   1.6 km/h 96 % 0.0 mm
18:17 -0.2 °C -0.8 °C 1010.0 hPa Calm   1.6 km/h 96 % 0.0 mm
18:27 -0.3 °C -0.9 °C 1010.0 hPa Calm   3.2 km/h 96 % 0.0 mm
18:32 -0.3 °C -0.9 °C 1010.0 hPa Calm   3.2 km/h 96 % 0.0 mm
18:37 -0.3 °C -0.9 °C 1010.0 hPa Calm   3.2 km/h 96 % 0.0 mm
18:42 -0.2 °C -0.8 °C 1010.0 hPa Calm   3.2 km/h 96 % 0.0 mm
18:47 -0.3 °C -0.9 °C 1010.0 hPa Calm   3.2 km/h 96 % 0.0 mm
18:57 -0.3 °C -0.9 °C 1010.0 hPa Calm   1.6 km/h 96 % 0.0 mm
19:02 -0.2 °C -0.8 °C 1010.0 hPa Calm   1.6 km/h 96 % 0.0 mm
19:12 -0.2 °C -0.8 °C 1010.0 hPa Calm   1.6 km/h 96 % 0.0 mm
19:17 -0.2 °C -0.8 °C 1010.0 hPa Calm   1.6 km/h 96 % 0.0 mm
19:22 -0.2 °C -0.8 °C 1010.0 hPa Calm     96 % 0.0 mm
19:27 -0.2 °C -0.8 °C 1010.0 hPa Calm     96 % 0.0 mm
19:32 -0.2 °C -0.8 °C 1010.0 hPa Calm   1.6 km/h 96 % 0.0 mm
19:37 -0.2 °C -0.8 °C 1010.4 hPa Calm   1.6 km/h 96 % 0.0 mm
19:42 -0.2 °C -0.8 °C 1010.4 hPa Calm   1.6 km/h 96 % 0.0 mm
19:47 -0.2 °C -0.8 °C 1010.4 hPa Calm     96 % 0.0 mm
19:52 -0.2 °C -0.8 °C 1010.4 hPa Calm     96 % 0.0 mm
19:57 -0.2 °C -0.8 °C 1010.4 hPa Calm     96 % 0.0 mm
20:02 -0.2 °C -0.8 °C 1010.4 hPa Calm     96 % 0.0 mm
20:07 -0.2 °C -0.8 °C 1010.4 hPa Calm     96 % 0.0 mm
20:12 -0.2 °C -0.8 °C 1010.4 hPa Calm     96 % 0.0 mm
20:17 -0.2 °C -0.8 °C 1010.4 hPa Calm     96 % 0.0 mm
20:22 -0.1 °C -0.7 °C 1010.4 hPa Calm     96 % 0.0 mm
20:27 -0.1 °C -0.7 °C 1010.4 hPa Calm     96 % 0.0 mm
20:32 -0.1 °C -0.7 °C 1010.4 hPa Calm     96 % 0.0 mm
20:37 -0.1 °C -0.7 °C 1010.4 hPa Calm     96 % 0.0 mm
20:42 -0.1 °C -0.5 °C 1010.4 hPa Calm     97 % 0.0 mm
20:47 -0.1 °C -0.5 °C 1010.4 hPa Calm     97 % 0.0 mm
20:52 -0.1 °C -0.5 °C 1010.4 hPa Calm     97 % 0.0 mm
20:57 -0.1 °C -0.5 °C 1010.4 hPa Calm     97 % 0.0 mm
21:02 -0.1 °C -0.5 °C 1010.4 hPa Calm     97 % 0.0 mm
21:07 -0.1 °C -0.5 °C 1010.4 hPa Calm     97 % 0.0 mm
21:12 -0.1 °C -0.5 °C 1010.4 hPa Calm     97 % 0.0 mm
21:17 -0.1 °C -0.5 °C 1010.4 hPa Calm     97 % 0.0 mm
21:22 -0.1 °C -0.5 °C 1010.4 hPa Calm     97 % 0.0 mm
21:27 -0.1 °C -0.5 °C 1010.4 hPa Calm     97 % 0.0 mm
21:32 -0.1 °C -0.5 °C 1010.4 hPa Calm     97 % 0.0 mm
21:37 0.0 °C -0.4 °C 1010.4 hPa Calm     97 % 0.0 mm
21:42 0.0 °C -0.4 °C 1010.4 hPa Calm     97 % 0.0 mm
21:47 0.0 °C -0.4 °C 1010.4 hPa Calm     97 % 0.0 mm
21:52 0.0 °C -0.4 °C 1010.4 hPa Calm     97 % 0.0 mm
21:57 0.0 °C -0.4 °C 1010.4 hPa Calm     97 % 0.0 mm
22:02 0.0 °C -0.4 °C 1010.4 hPa Calm     97 % 0.0 mm
22:07 0.0 °C -0.4 °C 1010.4 hPa Calm     97 % 0.0 mm
22:12 0.0 °C -0.4 °C 1010.4 hPa Calm     97 % 0.0 mm
22:17 0.0 °C -0.4 °C 1010.4 hPa Calm     97 % 0.0 mm
22:22 0.1 °C -0.3 °C 1010.4 hPa Calm     97 % 0.0 mm
22:27 0.1 °C -0.3 °C 1010.4 hPa Calm     97 % 0.0 mm
22:32 0.1 °C -0.3 °C 1010.4 hPa Calm     97 % 0.0 mm
22:37 0.1 °C -0.3 °C 1010.4 hPa Calm     97 % 0.0 mm
22:42 0.1 °C -0.3 °C 1010.4 hPa Calm     97 % 0.0 mm
22:47 0.1 °C -0.3 °C 1010.4 hPa Calm     97 % 0.0 mm
22:52 0.1 °C -0.3 °C 1010.4 hPa Calm     97 % 0.0 mm
22:57 0.1 °C -0.3 °C 1010.4 hPa Calm     97 % 0.0 mm
23:02 0.1 °C -0.3 °C 1010.4 hPa Calm     97 % 0.0 mm
23:12 0.1 °C -0.3 °C 1010.4 hPa Calm     97 % 0.0 mm
23:17 0.1 °C -0.3 °C 1010.4 hPa Calm     97 % 0.0 mm
23:22 0.1 °C -0.3 °C 1010.7 hPa Calm     97 % 0.0 mm
23:27 0.1 °C -0.3 °C 1010.7 hPa Calm     97 % 0.0 mm
23:32 0.1 °C -0.3 °C 1010.4 hPa Calm     97 % 0.0 mm
23:37 0.1 °C -0.3 °C 1010.7 hPa Calm     97 % 0.0 mm
23:42 0.1 °C -0.3 °C 1010.7 hPa Calm     97 % 0.0 mm
23:47 0.1 °C -0.3 °C 1010.7 hPa Calm     97 % 0.0 mm
23:52 0.1 °C -0.3 °C 1010.7 hPa Calm     97 % 0.0 mm
23:57 0.1 °C -0.3 °C 1010.7 hPa Calm     97 % 0.0 mm
Meteo18
Compliments of Weather Underground - 4 mb

Script developed by  Jim McMurry - jmcmurry@mwt.net Adapted for the template by  Wim van der Kuil - Leuven-Template.eu

You find our weather info also at:

European Weather Network

Weather Underground

Equipment we use:

Weather-station
Davis Vue

Weather-program
Meteohub

Weather-server
Raspberry PI 2 B+

Provider
1 and 1

Davis Vue

Meteohub

Raspberry PI 2 B+

1 and 1